Lawrence, KS

11:08 AM CST on February 21, 2017 (GMT -0600)
Lawrence Municipal

Weather History for KLWC - August, 2014

Change the Weather History Date:

Monday, August 11, 2014

  Actual Average Record
Temperature  
Mean Temperature 73 °F 78 °F  
Max Temperature 85 °F 90 °F 102 °F (2010)
Min Temperature 60 °F 67 °F 51 °F (2004)
Degree Days  
Heating Degree Days 0 0  
Month to date heating degree days 0 0  
Since 1 June heating degree days 1 9  
Since 1 July heating degree days 1 1  
Cooling Degree Days 8 13  
Month to date cooling degree days 142 152  
Year to date cooling degree days 969 960  
Since 1 June cooling degree days 776 841  
Growing Degree Days 22 (Base 50)    
Moisture  
Dew Point 63 °F    
Average Humidity 68    
Maximum Humidity 93    
Minimum Humidity 43    
Precipitation  
Precipitation 0.00 in 0.14 in 0.18 in (1999)
Month to date precipitation 3.74 1.15  
Year to date precipitation 22.36 24.68  
Sea Level Pressure  
Sea Level Pressure 30.06 in    
Wind  
Wind Speed 10 mph (NNW)    
Max Wind Speed 21 mph    
Max Gust Speed 27 mph    
Visibility 8 miles    
Events      
T = Trace of Precipitation, MM = Missing Value Source: NWS Daily Summary

Daily Weather History Graph

Daily Weather History Graph

Search for Another Location

Airport or City:

Trip Planner

Search our weather history database for the weather conditions in past years. The results will help you decide how hot, cold, wet, or windy it might be!

Date:

Astronomy

Aug. 11, 2014 Rise Set
Actual Time 6:30 AM CDT 8:20 PM CDT
Civil Twilight 6:01 AM CDT 8:49 PM CDT
Nautical Twilight 5:26 AM CDT 9:24 PM CDT
Astronomical Twilight 4:49 AM CDT 10:01 PM CDT
Moon 8:51 PM CDT (8/11) 7:35 AM CDT (8/11)
Length of Visible Light 14h 47m
Length of Day
13h 50m
Full, 99% of the Moon is Illuminated
Aug 11
Full
Aug 17
Last Quarter
Aug 25
New
Sep 2
First Quarter
Sep 8
Full

Hourly Weather History & Observations

Time (CDT) Temp. Heat Index Dew Point Humidity Pressure Visibility Wind Dir Wind Speed Gust Speed Precip Events Conditions
12:52 AM 66.9 °F - 64.0 °F 90% 30.04 in 8.0 mi NNW 3.5 mph - N/A   Clear
1:52 AM 66.9 °F - 64.9 °F 93% 30.03 in 7.0 mi WNW 4.6 mph - N/A   Clear
2:35 AM 66.0 °F - 64.0 °F 93% 30.04 in 2.0 mi NW 4.6 mph - N/A   Clear
2:45 AM 66.0 °F - 64.0 °F 93% 30.04 in 7.0 mi NW 4.6 mph - N/A   Clear
2:52 AM 66.0 °F - 64.0 °F 93% 30.02 in 8.0 mi NW 5.8 mph - N/A   Clear
3:52 AM 68.0 °F - 66.0 °F 93% 30.02 in 7.0 mi NW 5.8 mph - N/A   Scattered Clouds
4:52 AM 66.9 °F - 64.9 °F 93% 30.02 in 9.0 mi WNW 3.5 mph - N/A   Partly Cloudy
5:52 AM 66.0 °F - 64.0 °F 93% 30.01 in 4.0 mi NW 4.6 mph - N/A   Partly Cloudy
6:52 AM 64.9 °F - 63.0 °F 93% 30.03 in 5.0 mi WNW 3.5 mph - N/A   Clear
7:52 AM 69.1 °F - 66.9 °F 93% 30.05 in 7.0 mi NW 5.8 mph - N/A   Clear
8:25 AM 72.0 °F - 68.0 °F 87% 30.08 in 10.0 mi NW 5.8 mph - N/A   Partly Cloudy
8:52 AM 73.0 °F - 69.1 °F 87% 30.07 in 8.0 mi NW 10.4 mph - N/A   Mostly Cloudy
9:31 AM - - - N/A% - - North - - N/A   Unknown
9:52 AM 77.0 °F - 69.1 °F 76% 30.08 in - NW 12.7 mph - N/A   Unknown
10:22 AM 78.1 °F - 69.1 °F 74% 30.10 in 7.0 mi NNW 12.7 mph - N/A   Mostly Cloudy
10:29 AM 77.0 °F - 69.1 °F 76% 30.10 in 8.0 mi NNW 11.5 mph - N/A   Scattered Clouds
10:37 AM 80.1 °F 82.9 °F 69.1 °F 69% 30.10 in 8.0 mi NNW 13.8 mph - N/A   Mostly Cloudy
10:52 AM 78.1 °F - 68.0 °F 71% 30.08 in 8.0 mi NNW 11.5 mph - N/A   Mostly Cloudy
11:36 AM 79.0 °F - 68.0 °F 69% 30.10 in 8.0 mi NNW 16.1 mph 23.0 mph N/A   Mostly Cloudy
11:52 AM 81.0 °F 84.1 °F 69.1 °F 67% 30.08 in 9.0 mi North 16.1 mph - N/A   Scattered Clouds
12:52 PM 82.0 °F 83.8 °F 64.9 °F 56% 30.07 in 10.0 mi NNW 17.3 mph 24.2 mph N/A   Scattered Clouds
1:52 PM 80.1 °F 81.1 °F 61.0 °F 52% 30.07 in 10.0 mi North 17.3 mph 23.0 mph N/A   Partly Cloudy
2:52 PM 82.9 °F 83.2 °F 60.1 °F 46% 30.06 in 10.0 mi North 13.8 mph - N/A   Partly Cloudy
3:52 PM 82.9 °F 82.6 °F 57.9 °F 42% 30.06 in 10.0 mi NW 19.6 mph - N/A   Partly Cloudy
4:52 PM 82.0 °F 82.0 °F 57.9 °F 44% 30.05 in 10.0 mi North 16.1 mph - N/A   Clear
5:52 PM 80.1 °F 80.4 °F 57.0 °F 45% 30.05 in 10.0 mi NNW 17.3 mph - N/A   Clear
6:52 PM 78.1 °F - 57.9 °F 50% 30.04 in 10.0 mi North 12.7 mph 20.7 mph N/A   Clear
7:52 PM 73.9 °F - 57.9 °F 57% 30.05 in 10.0 mi North 6.9 mph - N/A   Clear
8:52 PM 66.9 °F - 57.9 °F 73% 30.06 in 10.0 mi NNW 4.6 mph - N/A   Clear
9:52 PM 66.0 °F - 57.9 °F 75% 30.07 in 10.0 mi North 3.5 mph - N/A   Clear
10:52 PM 62.1 °F - 57.9 °F 86% 30.09 in 10.0 mi NNW 4.6 mph - N/A   Clear
11:52 PM 60.1 °F - 55.9 °F 86% 30.09 in 10.0 mi NW 4.6 mph - N/A   Clear